Weather in Vavilovets

Russia / Chelyabinsk Oblast     55°08′57″N   61°14′11″E
temp.,
°C
wind,
m/s
gust,
m/s
humid.,
%
clouds,
%
prec.,
mm/h
press.,
hPa
HPBL,
m
4 july, mon
mon423:00+15ne388346 0.6 1005270
02:00+14nne5108992 0.0 1005382
05:00+12nne51095100 0.0 1005492
08:00+13ne5993100 0.1 1006788
11:00+12nne61091100 0.1 1007725
14:00+13ne51070100 0.0 10071015
17:00+15nne795920 0.1 10071520
20:00+13nne696646 0.1 10081157
5 july, tue
tue523:00+10n51082100 0.1 1009720
02:00+9n51086100 0.1 1009603
05:00+8n51084100 0.2 1009596
08:00+9n51082100 0.0 1010689
11:00+12n6972100 0.0 1011794
14:00+14n6862100 0.1 1011985
17:00+17n465210 0.1 10111486
20:00+15n246198 0.1 1011307
6 july, wed
wed623:00+13nnw236586 0.1 101271
02:00+10nw24775 0.0 101275
05:00+9nnw25805 0.0 1013101
08:00+13nnw34665 0.0 1013348
11:00+18n335213 0.1 10131627
14:00+20n334354 0.1 10122053
17:00+18n3355100 0.1 1013866
20:00+16n2365100 0.0 1013126
7 july, thu
thu723:00+15nw2376100 0.1 1014106
02:00+14nnw237997 0.0 1015110
05:00+11nnw24900 0.0 101693
08:00+15n23745 0.0 1017323
11:00+20nne22525 0.0 10171259
14:00+22nne324730 0.0 10171765
17:00+22nne334985 0.0 10161800
20:00+20ne23614 0.1 1017405
8 july, fri
fri823:00+17ese00765 0.1 101811
02:00+15wnw22825 0.0 101820
05:00+14nw11855 0.0 101825
08:00+19wnw11685 0.0 1018259
11:00+23wnw11520 0.0 10181132
14:00+25nnw33430 0.0 10171726
17:00+26nne23390 0.0 10161642
20:00+24e115017 0.0 101665